User: anonymous   Login
Location: Unspecified
(0.0000°N, 0.0000°E)
Time: 19:45:59
(UTC+00:00)
Language:

CSTB 1 - Orbit

View from above orbital plane
View from above orbital plane
View from above satellite
View from above satellite

Ground track
Ground track

The orbit data is extracted from the following two-line orbital elements,

1 31122U 07012F   17269.45271310  .00000285  00000-0  65723-4 0  9999
2 31122  98.0332 225.4051 0078683 169.8228 190.4588 14.60572665555577
Epoch (UTC): 26 September 2017 10:51:54
Eccentricity: 0.0078683
inclination: 98.0332°
perigee height: 636 km
apogee height: 747 km
right ascension of ascending node: 225.4051°
argument of perigee: 169.8228°
revolutions per day: 14.60572665
mean anomaly at epoch: 190.4588°
orbit number at epoch: 55557

The dashed part of the orbit path shows where the satellite is in the earth's shadow,  

DLR